Погода в Гнезно

Польша     52°31′28″N   17°35′51″E
темп.,
°C
ветер,
м/с
пор.,
м/с
влажн.,
%
обл.,
%
осадки,
мм/ч
давл.,
гПа
погр.,
м
7 марта, вс
вс701:00+2з8128495 0.1 1025950
04:00+1з91381100 0.1 10221096
07:000з81278100 0.1 10211063
10:00+1з9137797 0.0 1019989
13:00+3з10136997 0.1 10181082
16:00+3з8127194 0.0 10171177
19:00+1з7129597 0.2 1016658
22:00+1зсз61097100 0.7 1017561
8 марта, пн
пн801:00−2с2487100 1.4 1018117
04:00−3ссз359017 0.0 1018140
07:00−2сз358121 0.0 1020153
10:00+2ссз45540 0.0 10211250
13:00+3ссз455033 0.0 10221524
16:00+2ссз355027 0.0 10211583
19:00−1с126719 0.0 102221
22:00−2ссв237590 0.0 102383
9 марта, вт
вт901:00−2всв237895 0.0 1022120
04:00−2в2378100 0.0 1022117
07:00−2в2376100 0.0 1022163
10:00+1вюв2260100 0.0 1021628
13:00+3ююз224593 0.0 10211332
16:00+2зюз124688 0.0 10191278
19:00−1св125860 0.0 102021
22:00−2вюв12610 0.0 102022
10 марта, ср
ср1001:00−2ююв22650 0.0 102022
04:00−2ююз12660 0.0 102021
07:00−2ююв12620 0.0 102027
10:00+3ю33460 0.0 1021575
13:00+5ююз45524 0.0 10201226
16:00+4ююз366895 0.0 1019501
19:00+1ю468396 0.0 1018104
22:000ю4108583 0.0 1017214
11 марта, чт
чт1101:00+1ю5118991 0.0 1014239
04:00+2ю61387100 0.0 1010324
07:00+3ююз81587100 0.8 1006636
10:00+4ююз81593100 3.3 1004675
13:00+9юз91781100 4.5 10011070
16:00+9зюз91786100 0.7 10001012
19:00+7юз8168183 0.9 1000552
22:00+6зюз7167895 1.0 1002768